When you browse on this site, cookies collect data to enhance your experience and personalize the content and advertising you see.
Visit our Privacy Policy to learn more. By continuing to use the site, you agree to this use of cookies and data.

Hourly Weather Abomey

Today, 12 August, Wednesday

Time Temperature Precipitation Wind Pressure Humidity
00:00 +22°C° 0 mm 1 mps 740 mmHg 92%
01:00 +22°C° 0 mm 1 mps 740 mmHg 94%
02:00 +22°C° 0 mm 1 mps 740 mmHg 95%
03:00 +22°C° 0 mm 1 mps 740 mmHg 97%
04:00 +22°C° 0 mm 1 mps 740 mmHg 97%
05:00 +21°C° 0 mm 1 mps 741 mmHg 97%
06:00 +22°C° 0 mm 1 mps 741 mmHg 97%
07:00 +23°C° 0 mm 1 mps 741 mmHg 89%
08:00 +25°C° 0 mm 2 mps 742 mmHg 80%
09:00 +27°C° 0 mm 2 mps 742 mmHg 71%
10:00 +28°C° 0 mm 2 mps 742 mmHg 66%
11:00 +29°C° 0 mm 2 mps 741 mmHg 62%
12:00 +30°C° 0 mm 2 mps 741 mmHg 57%
13:00 +30°C° 0 mm 2 mps 741 mmHg 58%
14:00 +30°C° 0 mm 2 mps 740 mmHg 59%
15:00 +30°C° 0 mm 2 mps 739 mmHg 60%
16:00 +29°C° 0 mm 2 mps 739 mmHg 64%
17:00 +28°C° 0 mm 2 mps 740 mmHg 67%
18:00 +27°C° 0 mm 2 mps 740 mmHg 71%
19:00 +26°C° 0 mm 2 mps 740 mmHg 74%
20:00 +25°C° 0 mm 2 mps 740 mmHg 77%
21:00 +24°C° 0 mm 2 mps 741 mmHg 81%
22:00 +23°C° 0 mm 2 mps 741 mmHg 83%
23:00 +23°C° 0 mm 2 mps 741 mmHg 86%

Tomorrow, 13 August, Thursday

Time Temperature Precipitation Wind Pressure Humidity
00:00 +21°C° 0 mm 2 mps 741 mmHg 89%
01:00 +21°C° 0 mm 2 mps 740 mmHg 90%
02:00 +21°C° 0 mm 2 mps 740 mmHg 91%
03:00 +21°C° 0 mm 2 mps 740 mmHg 92%
04:00 +20°C° 0 mm 2 mps 740 mmHg 92%
05:00 +20°C° 0 mm 2 mps 740 mmHg 92%
06:00 +21°C° 0 mm 1 mps 740 mmHg 92%
07:00 +23°C° 0 mm 2 mps 741 mmHg 84%
08:00 +25°C° 0 mm 2 mps 741 mmHg 76%
09:00 +27°C° 0 mm 2 mps 741 mmHg 67%
10:00 +30°C° 0 mm 1 mps 741 mmHg 61%
11:00 +32°C° 0 mm 1 mps 741 mmHg 54%
12:00 +32°C° 0 mm 0 mps 741 mmHg 48%
13:00 +34°C° 0 mm 1 mps 740 mmHg 49%
14:00 +33°C° 0 mm 1 mps 739 mmHg 50%
15:00 +32°C° 0 mm 2 mps 738 mmHg 51%
16:00 +31°C° 0 mm 2 mps 738 mmHg 56%
17:00 +30°C° 0 mm 2 mps 738 mmHg 61%
18:00 +28°C° 0 mm 2 mps 738 mmHg 66%
19:00 +27°C° 0 mm 3 mps 739 mmHg 71%
20:00 +25°C° 0 mm 3 mps 739 mmHg 75%
21:00 +23°C° 0 mm 4 mps 740 mmHg 80%
22:00 +24°C° 0 mm 3 mps 739 mmHg 81%
23:00 +22°C° 0 mm 3 mps 739 mmHg 82%

Day after tomorrow, 14 August, Friday

Time Temperature Precipitation Wind Pressure Humidity
00:00 +22°C° 0 mm 3 mps 739 mmHg 84%
01:00 +22°C° 0 mm 3 mps 739 mmHg 84%
02:00 +22°C° 0 mm 3 mps 739 mmHg 84%
03:00 +22°C° 0 mm 3 mps 738 mmHg 85%
04:00 +22°C° 0 mm 3 mps 739 mmHg 85%
05:00 +22°C° 0 mm 3 mps 739 mmHg 84%
06:00 +22°C° 0 mm 3 mps 739 mmHg 84%
07:00 +22°C° 0 mm 3 mps 739 mmHg 84%
08:00 +23°C° 0 mm 2 mps 740 mmHg 83%
09:00 +24°C° 0 mm 2 mps 740 mmHg 83%
10:00 +23°C° 0.7 mm 2 mps 740 mmHg 85%
11:00 +23°C° 0.7 mm 2 mps 740 mmHg 87%
12:00 +23°C° 0.7 mm 2 mps 739 mmHg 89%
13:00 +23°C° 0.4 mm 2 mps 739 mmHg 89%
14:00 +24°C° 0.4 mm 2 mps 738 mmHg 89%
15:00 +24°C° 0.4 mm 2 mps 737 mmHg 89%
16:00 +24°C° 0.4 mm 2 mps 737 mmHg 91%
17:00 +23°C° 0.4 mm 1 mps 737 mmHg 92%
18:00 +23°C° 0.4 mm 1 mps 737 mmHg 94%
19:00 +23°C° 0.1 mm 1 mps 738 mmHg 94%
20:00 +23°C° 0.1 mm 1 mps 738 mmHg 94%
21:00 +23°C° 0.1 mm 1 mps 739 mmHg 93%
22:00 +23°C° 0 mm 1 mps 739 mmHg 93%
23:00 +23°C° 0 mm 2 mps 739 mmHg 92%

15 August, Saturday

Time Temperature Precipitation Wind Pressure Humidity
00:00 +23°C° 0 mm 2 mps 739 mmHg 92%
01:00 +23°C° 0.1 mm 2 mps 738 mmHg 92%
02:00 +23°C° 0.1 mm 2 mps 738 mmHg 92%
03:00 +21°C° 0.1 mm 2 mps 738 mmHg 92%
04:00 +23°C° 0.1 mm 2 mps 738 mmHg 92%
05:00 +23°C° 0.1 mm 2 mps 738 mmHg 92%
06:00 +23°C° 0.1 mm 2 mps 738 mmHg 91%
07:00 +22°C° 0 mm 3 mps 739 mmHg 90%
08:00 +22°C° 0 mm 3 mps 739 mmHg 88%
09:00 +22°C° 0 mm 3 mps 740 mmHg 86%
10:00 +24°C° 0 mm 3 mps 740 mmHg 84%
11:00 +25°C° 0 mm 3 mps 740 mmHg 81%
12:00 +25°C° 0 mm 3 mps 739 mmHg 79%
13:00 +25°C° 0 mm 3 mps 739 mmHg 77%
14:00 +26°C° 0 mm 3 mps 738 mmHg 76%
15:00 +26°C° 0 mm 3 mps 738 mmHg 75%
16:00 +26°C° 0 mm 3 mps 738 mmHg 77%
17:00 +25°C° 0 mm 2 mps 738 mmHg 79%
18:00 +25°C° 0 mm 2 mps 738 mmHg 81%
19:00 +24°C° 0 mm 2 mps 738 mmHg 82%
20:00 +24°C° 0 mm 2 mps 738 mmHg 83%
21:00 +24°C° 0 mm 2 mps 739 mmHg 84%
22:00 +24°C° 0 mm 2 mps 739 mmHg 85%
23:00 +23°C° 0 mm 2 mps 739 mmHg 86%

16 August, Sunday

Time Temperature Precipitation Wind Pressure Humidity
00:00 +23°C° 0 mm 2 mps 739 mmHg 87%
01:00 +23°C° 0 mm 2 mps 739 mmHg 88%
02:00 +23°C° 0 mm 2 mps 738 mmHg 90%
03:00 +21°C° 0 mm 2 mps 738 mmHg 91%
04:00 +22°C° 0 mm 1 mps 738 mmHg 92%
05:00 +22°C° 0 mm 1 mps 739 mmHg 94%
06:00 +22°C° 0 mm 1 mps 739 mmHg 95%
07:00 +23°C° 0 mm 2 mps 740 mmHg 87%
08:00 +25°C° 0 mm 2 mps 740 mmHg 78%
09:00 +27°C° 0 mm 3 mps 740 mmHg 70%
10:00 +28°C° 0 mm 3 mps 740 mmHg 66%
11:00 +29°C° 0 mm 3 mps 740 mmHg 61%
12:00 +30°C° 0 mm 2 mps 739 mmHg 57%
13:00 +30°C° 0 mm 2 mps 739 mmHg 58%
14:00 +30°C° 0 mm 2 mps 738 mmHg 58%
15:00 +30°C° 0 mm 2 mps 737 mmHg 59%
16:00 +29°C° 0 mm 2 mps 737 mmHg 62%
17:00 +28°C° 0 mm 2 mps 737 mmHg 66%
18:00 +27°C° 0 mm 2 mps 737 mmHg 70%
19:00 +26°C° 0 mm 2 mps 738 mmHg 72%
20:00 +25°C° 0 mm 3 mps 739 mmHg 75%
21:00 +24°C° 0 mm 3 mps 739 mmHg 78%
22:00 +22°C° 0 mm 3 mps 739 mmHg 80%
23:00 +22°C° 0 mm 3 mps 739 mmHg 82%

17 August, Monday

Time Temperature Precipitation Wind Pressure Humidity
00:00 +22°C° 0 mm 3 mps 739 mmHg 85%
01:00 +21°C° 0 mm 2 mps 739 mmHg 86%
02:00 +21°C° 0 mm 2 mps 738 mmHg 87%
03:00 +21°C° 0 mm 2 mps 738 mmHg 89%
04:00 +21°C° 0 mm 2 mps 738 mmHg 90%
05:00 +21°C° 0 mm 2 mps 739 mmHg 91%
06:00 +20°C° 0 mm 2 mps 739 mmHg 92%
07:00 +23°C° 0 mm 2 mps 740 mmHg 85%
08:00 +25°C° 0 mm 2 mps 740 mmHg 78%
09:00 +27°C° 0 mm 3 mps 740 mmHg 71%
10:00 +28°C° 0 mm 2 mps 740 mmHg 67%
11:00 +30°C° 0 mm 2 mps 739 mmHg 62%
12:00 +31°C° 0 mm 2 mps 739 mmHg 57%
13:00 +31°C° 0.1 mm 2 mps 738 mmHg 56%
14:00 +32°C° 0.1 mm 2 mps 738 mmHg 55%
15:00 +32°C° 0.1 mm 2 mps 737 mmHg 53%
16:00 +31°C° 0.1 mm 2 mps 737 mmHg 59%
17:00 +29°C° 0.1 mm 3 mps 737 mmHg 65%
18:00 +28°C° 0.1 mm 3 mps 737 mmHg 72%
19:00 +26°C° 0 mm 3 mps 737 mmHg 75%
20:00 +25°C° 0 mm 3 mps 738 mmHg 77%
21:00 +24°C° 0 mm 3 mps 739 mmHg 80%
22:00 +24°C° 0 mm 3 mps 739 mmHg 82%
23:00 +24°C° 0 mm 3 mps 739 mmHg 83%
Show more